Retour au catalogue

COSMOS 1275 DEB

ActifPO
NORAD 13073·DEBRIS·🇷🇺 Russia

Lancé Jun 4, 1981 depuis Plesetsk Cosmodrome

Loading…

Prochains Passages (prochaines 24 heures)

TLE

FraisSource: Space-Track

Époque: Sep 14, 2026, 22:08 UTC

1 13073U 81053EZ  26257.92282108  .00000096  00000-0  86430-4 0  9995
2 13073  82.9358 232.9925 0086311 214.2831 174.5342 13.72456357257646

Suivez COSMOS 1275 DEB en temps réel avec AllMySat

Download on the App Store